Hourly Data Report for September 03, 2017

All times are specified in Local Standard Time (LST). Add 1 hour to adjust for Daylight Saving Time where and when it is observed.

NAPPAN AUTO
NOVA SCOTIA

45°45'34.400" N
64°14'29.200" W
19.80 m
8203702
71311
XNP

Download Data

Hourly Data (September 2017)
Hourly Data Report for September 3, 2017
Temp Definition
°C
Dew Point Temp Definition
°C
Rel Hum Definition
%
Wind Dir Definition
10's deg

Wind Spd Definition
km/h
Visibility Definition
km
Stn Press Definition
kPa
Hmdx Definition


Wind Chill Definition


Weather Definition


TIME
00:00 8.4 6.9 90 17 7   102.10     LegendNANA
01:00 8.2 6.6 90 17 7   102.13     LegendNANA
02:00 6.3 5.5 94 18 6   102.14     LegendNANA
03:00 5.4 4.9 96 18 7   102.13     LegendNANA
04:00 5.1 4.8 98 20 10   102.16     LegendNANA
05:00 5.3 5.0 98 20 7   102.17     LegendNANA
06:00 5.0 4.8 98 18 6   102.18     LegendNANA
07:00 6.1 5.7 98 20 7   102.22     LegendNANA
08:00 9.7 8.7 93 22 9   102.24     LegendNANA
09:00 14.1 10.6 79 20 10   102.28     LegendNANA
10:00 17.0 10.8 66 21 9   102.25     LegendNANA
11:00 17.5 8.8 57 20 15   102.21     LegendNANA
12:00 18.1 9.4 57 18 12   102.08     LegendNANA
13:00 18.5 8.7 53 18 15   102.03     LegendNANA
14:00 18.5 9.5 56 16 12   101.98     LegendNANA
15:00 18.1 9.2 56 15 15   101.90     LegendNANA
16:00 17.9 10.5 62 18 19   101.86     LegendNANA
17:00 17.1 9.8 62 16 19   101.80     LegendNANA
18:00 16.2 9.6 65 16 22   101.77     LegendNANA
19:00 15.3 10.2 72 15 13   101.65     LegendNANA
20:00 14.5 10.5 77 14 10   101.55     LegendNANA
21:00 14.1 10.4 78 14 11   101.42     LegendNANA
22:00 14.0 10.4 79 15 14   101.30     LegendNANA
23:00 13.4 11.2 86 14 13   101.16     LegendNANA

Notes on Data Quality.

Legend

  • E = Estimated
  • M = Missing
  • NA = Not Available
  • ‡ = Partner data that is not subject to review by the National Climate Archives
Date modified: